Location: Rounton
(54.4000°N, 1.3500°W)
Time: 08:09:29
(UTC+00:00)

Vanguard 1 - Pass Details

Date: 06 December 2021
Orbit: 652 x 3830 km, 34.2° (Epoch: 16 January)

Event Time Altitude Azimuth Distance (km) Brightness Sun altitude
Rises 23:09:05 0° 221° (SW) 7,029 - -57.0°
Reaches altitude 10° 23:14:01 10° 214° (SSW) 6,343 - -57.2°
Maximum altitude 23:32:19 36° 157° (SSE) 5,059 - -57.9°
Exits shadow 23:49:35 13° 104° (ESE) 6,281 14.0 -58.2°
Drops below altitude 10° 23:50:49 10° 102° (ESE) 6,440 14.1 -58.2°
Sets 23:55:50 0° 95° (E) 7,148 14.4 -58.2°
